모두
Enua Airport (Atiu (Enua Manu)) AIU 기상
|
Atiu (Enua Manu) (AIU / NCAT)
맑은 하늘
가벼운 바람 |
|
23 °C |
There is no TAF data available at AIU or any nearby airports.
최근 AIU METAR 이력
| Date | Time (-10) | Flight Rules | Wind Dir. | Speed | Type | Height AGL (ft) | Visibility | Temp (°C) | Temp (°F) | Dew Point (°C) | Dew Point (°F) | Rel. Humid. | Pressure | Density Altitude | Remarks |
|---|---|---|---|---|---|---|---|---|---|---|---|---|---|---|---|
| 05-9월 | 06:00 | n/a | 50° | 4 kt | Missing | 23° | 73° | 21° | 69° | 89% | 1013 mb | 1,017 ft | |||
| 05-9월 | 05:30 | n/a | 40° | 5 kt | Missing | 23° | 73° | 21° | 69° | 89% | 1013 mb | 1,017 ft | |||
| 05-9월 | 05:00 | n/a | 50° | 5 kt | Missing | 23° | 73° | 21° | 69° | 89% | 1013 mb | 1,017 ft | |||
| 05-9월 | 04:30 | n/a | 50° | 5 kt | Missing | 23° | 73° | 21° | 69° | 89% | 1013 mb | 1,017 ft | |||
| 05-9월 | 04:00 | n/a | 50° | 6 kt | Missing | 23° | 73° | 21° | 69° | 89% | 1013 mb | 1,017 ft | |||
| 05-9월 | 03:30 | n/a | 50° | 5 kt | Missing | 23° | 73° | 21° | 69° | 89% | 1013 mb | 1,017 ft | |||
| 05-9월 | 03:00 | n/a | 50° | 6 kt | Missing | 23° | 73° | 21° | 69° | 89% | 1013 mb | 1,017 ft | |||
| 05-9월 | 02:30 | n/a | 40° | 8 kt | Missing | 23° | 73° | 21° | 69° | 89% | 1013 mb | 1,017 ft | |||
| 05-9월 | 02:00 | n/a | 50° | 6 kt | Missing | 23° | 73° | 21° | 69° | 89% | 1013 mb | 1,017 ft | |||
| 05-9월 | 01:30 | n/a | 60° | 5 kt | Missing | 23° | 73° | 21° | 69° | 89% | 1014 mb | 988 ft | |||
| 05-9월 | 01:00 | n/a | 60° | 7 kt | Missing | 23° | 73° | 21° | 69° | 89% | 1014 mb | 988 ft | |||
| 05-9월 | 00:30 | n/a | 70° | 4 kt | Missing | 23° | 73° | 21° | 69° | 89% | 1015 mb | 958 ft | |||
| 05-9월 | 00:00 | n/a | 70° | 4 kt | Missing | 23° | 73° | 21° | 69° | 89% | 1015 mb | 958 ft | |||
| 04-9월 | 23:30 | n/a | 80° | 4 kt | Missing | 23° | 73° | 21° | 69° | 89% | 1015 mb | 958 ft | |||
| 04-9월 | 23:00 | n/a | 80° | 4 kt | Missing | 23° | 73° | 21° | 69° | 89% | 1015 mb | 958 ft | |||
| 04-9월 | 22:30 | n/a | 60° | 3 kt | Missing | 23° | 73° | 21° | 69° | 89% | 1015 mb | 958 ft | |||
| 04-9월 | 22:00 | n/a | 90° | 4 kt | Missing | 23° | 73° | 21° | 69° | 89% | 1015 mb | 958 ft | |||
| 04-9월 | 21:30 | n/a | 110° | 3 kt | Missing | 23° | 73° | 21° | 69° | 89% | 1015 mb | 958 ft | |||
| 04-9월 | 21:00 | n/a | 130° | 3 kt | Missing | 23° | 73° | 21° | 69° | 89% | 1015 mb | 958 ft | |||
| 04-9월 | 20:30 | n/a | 140° | 3 kt | Missing | 23° | 73° | 21° | 69° | 89% | 1015 mb | 958 ft | |||
| 04-9월 | 20:00 | n/a | 130° | 3 kt | Missing | 23° | 73° | 21° | 69° | 89% | 1015 mb | 958 ft | |||
| 04-9월 | 19:30 | n/a | 120° | 3 kt | Missing | 23° | 73° | 21° | 69° | 89% | 1015 mb | 958 ft | |||
| 04-9월 | 19:00 | n/a | 110° | 3 kt | Missing | 23° | 73° | 21° | 69° | 89% | 1014 mb | 988 ft | |||
| 04-9월 | 18:30 | n/a | 150° | 3 kt | Missing | 23° | 73° | 21° | 69° | 89% | 1014 mb | 988 ft |
로그인
| 귀하의 브라우저는 지원되지 않습니다.. 브라우저를 업그레이드하세요 |
